Location: Unspecified
(44.4377°N, 88.0525°W)
Time: 12:51:40
(UTC-05:00)

Okean 3 - Pass Details

Date: 23 April 2019
Orbit: 576 x 602 km, 82.5° (Epoch: 19 May)

Event Time Altitude Azimuth Distance (km) Brightness Sun altitude
Exits shadow 01:11:48 20° 38° (NE) 1,399 5.9 -32.9°
Drops below altitude 10° 01:13:18 10° 26° (NNE) 1,922 6.8 -32.9°
Sets 01:15:38 0° 17° (NNE) 2,823 8.0 -32.8°
